User: anonymous   Login
Location: Unspecified
(0.0000°N, 0.0000°E)
Time: 07:44:55
(UTC+00:00)
Language:

STRAND 1 - Orbit

View from above orbital plane
View from above orbital plane
View from above satellite
View from above satellite

Ground track
Ground track

The orbit data is extracted from the following two-line orbital elements,

1 39090U 13009E   19167.83389438  .00000025  00000-0  24176-4 0  9995
2 39090  98.4886  13.8242 0008061 298.8206  61.2170 14.35087108330129
Epoch (UTC): 16 June 2019 20:00:48
Eccentricity: 0.0008061
inclination: 98.4886°
perigee height: 769 km
apogee height: 780 km
right ascension of ascending node: 13.8242°
argument of perigee: 298.8206°
revolutions per day: 14.35087108
mean anomaly at epoch: 61.2170°
orbit number at epoch: 33012

The dashed part of the orbit path shows where the satellite is in the earth's shadow,  

DLR